Location: Academy Hills Park
(35.1495°N, 106.5275°W)
Time: 13:55:33
(UTC+00:00)

Daily predictions for brighter satellites

Satellite Brightness Start Highest point End
(mag) Time Altitude Azimuth Time Altitude Azimuth Time Altitude Azimuth
NOSS 3-2 (C) 4.3 12:00:48 10° NW 12:08:24 51° WSW 12:16:34 10° S
CZ-4B R/B 4.2 12:05:18 10° N 12:09:09 43° WNW 12:13:09 10° SW
Nadezhda 3 Rocket 4.0 12:04:56 10° NNW 12:11:14 68° W 12:17:29 10° S
ALOS 3.5 12:07:24 10° NNE 12:11:52 44° E 12:16:18 10° S
SJ-12 4.5 12:07:54 10° NNE 12:11:58 61° E 12:16:02 10° S
USA 234 3.2 12:07:45 10° SE 12:14:17 77° SW 12:20:50 10° NW
Cosmos 2341 Rocket 3.9 12:08:26 10° S 12:14:41 83° W 12:20:56 10° N
Cosmos 1892 Rocket 3.7 12:10:53 10° SSW 12:15:11 49° W 12:19:28 10° N
Cosmos 1943 Rocket 4.4 12:14:18 10° N 12:18:52 24° ENE 12:23:26 10° ESE
Meteor 1-24 Rocket 4.2 12:17:04 10° S 12:22:42 67° E 12:28:33 10° NNE
FENGYUN 3A 4.3 12:19:09 10° NNE 12:24:32 60° E 12:29:53 10° S
SL-16 R/B 2.6 12:19:21 10° SW 12:24:40 41° WNW 12:30:02 10° N
Cosmos 44 4.0 12:22:15 15° WNW 12:24:54 26° WSW 12:28:31 10° SSW
GP-B 3.3 12:25:13 10° SSW 12:29:30 50° W 12:33:49 10° NNW
KORONAS-FOTON 3.7 12:26:35 10° SSW 12:30:19 70° W 12:34:06 10° N
Cosmos 1437 Rocket 3.1 12:27:33 10° SSW 12:31:05 38° WNW 12:34:39 10° N
Cosmos 1606 Rocket 4.3 12:28:10 10° NNW 12:31:55 29° W 12:35:39 10° SSW
MOS 1-B 4.4 12:26:58 10° N 12:32:44 65° WNW 12:38:26 10° SSW
Meteor 1-16 Rocket 4.3 12:27:47 10° NNW 12:32:54 50° W 12:38:07 10° SSW
H-2A R/B 4.4 12:31:30 10° NW 12:33:01 12° WNW 12:33:15 12° WNW
SeaSat 1 4.3 12:29:15 10° NE 12:33:47 36° ESE 12:38:16 10° S
Cosmos 1741 Rocket 4.0 12:29:22 10° SSW 12:34:37 65° WNW 12:39:56 10° N
Milstar 3 3.6 12:31:27 10° WSW 12:37:55 45° S 12:44:57 10° E
Cosmos 44 Rocket 3.4 12:33:32 10° NNW 12:38:14 73° ENE 12:42:54 10° SE
ATLAS 3B R/B 3.0 12:32:13 10° NW 12:38:33 44° WSW 12:45:03 10° S
Cosmos 2278 Rocket 3.5 12:35:30 10° WNW 12:39:12 18° W 12:42:55 10° SW
SL-8 Rocket 3.9 12:33:11 10° SSW 12:39:22 74° W 12:45:32 10° N
CZ-2C R/B 3.7 12:37:14 10° NNW 12:40:58 21° WNW 12:44:41 10° WSW
COBE Rocket 4.0 12:36:28 10° S 12:41:23 61° W 12:46:28 10° NNW
Cosmos 2297 3.8 12:36:20 10° NNW 12:42:01 65° WSW 12:47:39 10° S
USA 116 3.7 12:38:27 10° SSE 12:42:23 79° ENE 12:45:53 10° N
Cosmos 2366 rocket 4.1 12:42:06 10° S 12:48:27 81° W 12:54:50 10° N
CENTAUR R/B 3.7 12:41:22 10° NW 12:48:58 39° WSW 12:56:50 10° S
Cosmos 1626 Rocket 3.5 12:46:21 10° SSW 12:50:36 61° W 12:54:54 10° N
Centaur D AC-28 3.6 12:47:01 10° WSW 12:51:13 53° S 13:06:47 10° E
Cosmos 1763 Rocket 4.2 12:46:10 10° N 12:51:15 58° ENE 12:56:15 10° SSE
Cosmos 1812 Rocket 4.5 12:47:53 10° N 12:52:16 55° E 12:56:37 10° SSE
Cosmos 1953 4.2 12:52:56 10° WNW 12:54:14 11° W 12:55:31 10° WSW
Cosmos 1908 3.4 12:51:38 10° NNW 12:55:18 47° W 12:58:57 10° SSW
NOAA 6 4.0 12:51:17 10° N 12:56:26 71° WNW 13:01:32 10° SSW
